Weather History for Torrington, WY

Change the Weather History Date:

Sunday, November 4, 2012

  Actual Average Record
Temperature  
Mean Temperature 46 °F 41 °F  
Max Temperature 62 °F 55 °F 77 °F (1999)
Min Temperature 30 °F 27 °F 17 °F (2000)
Degree Days  
Heating Degree Days 19 24  
Month to date heating degree days 76 93  
Since 1 July heating degree days 702 803  
Cooling Degree Days 0 0  
Month to date cooling degree days 0 0  
Year to date cooling degree days 1021 678  
Moisture  
Dew Point 29 °F    
Average Humidity 52    
Maximum Humidity 78    
Minimum Humidity 25    
Precipitation  
Precipitation 0.00 in 0.02 in 0.01 in (2003)
Month to date precipitation 0.00 0.09  
Year to date precipitation 6.98 13.49  
Sea Level Pressure  
Sea Level Pressure 30.16 in    
Wind  
Wind Speed 9 mph (NW)    
Max Wind Speed 25 mph    
Max Gust Speed 33 mph    
Visibility 10 miles    
Events      
T = Trace of Precipitation, MM = Missing Value Source: NWS Daily Summary

Daily Weather History Graph

Daily Weather History Graph

Search for Another Location

Airport:

Trip Planner

Search our weather history database for the weather conditions in past years. The results will help you decide how hot, cold, wet, or windy it might be!

Date:

Astronomy

Nov. 04, 2012 Rise Set
Actual Time 6:33 AM MST 4:46 PM MST
Civil Twilight 6:04 AM MST 5:15 PM MST
Nautical Twilight 5:31 AM MST 5:48 PM MST
Astronomical Twilight 4:58 AM MST 6:21 PM MST
Moon 9:25 PM MST (11/4) 11:19 AM MST (11/4)
Length of Visible Light 11h 10m
Length of Day
10h 12m
Waning Gibbous, 71% of the Moon is Illuminated
Nov 4
Waning Gibbous
Nov 6
Last Quarter
Nov 13
New
Nov 20
First Quarter
Nov 28
Full

Hourly Weather History & Observations

Time (MST) Temp. Windchill Dew Point Humidity Pressure Visibility Wind Dir Wind Speed Gust Speed Precip Events Conditions
12:53 AM 32.0 °F - 25.0 °F 75% 30.12 in 10.0 mi Calm Calm - N/A   Clear
1:53 AM 33.1 °F - 25.0 °F 72% 30.10 in 10.0 mi Calm Calm - N/A   Clear
1:53 AM 32.0 °F 28.7 °F 25.0 °F 75% 30.09 in 10.0 mi NW 3.5 mph - N/A   Clear
2:53 AM 30.9 °F 24.3 °F 25.0 °F 79% 30.10 in 10.0 mi WNW 6.9 mph - N/A   Clear
3:53 AM 30.0 °F - 25.0 °F 82% 30.10 in 10.0 mi Calm Calm - N/A   Clear
4:53 AM 33.1 °F 28.7 °F 26.1 °F 75% 30.11 in 10.0 mi NW 4.6 mph - N/A   Clear
5:53 AM 33.1 °F 30.0 °F 26.1 °F 75% 30.11 in 10.0 mi WNW 3.5 mph - N/A   Clear
6:53 AM 34.0 °F 29.8 °F 27.0 °F 75% 30.14 in 10.0 mi WNW 4.6 mph - N/A   Clear
7:53 AM 35.1 °F 31.0 °F 28.0 °F 76% 30.16 in 10.0 mi West 4.6 mph - N/A   Clear
8:53 AM 41.0 °F 38.0 °F 28.9 °F 62% 30.16 in 10.0 mi West 4.6 mph - N/A   Clear
9:53 AM 48.0 °F - 30.0 °F 50% 30.16 in 10.0 mi West 8.1 mph - N/A   Clear
10:53 AM 57.0 °F - 26.1 °F 30% 30.14 in 10.0 mi WNW 12.7 mph 19.6 mph N/A   Clear
11:53 AM 60.1 °F - 24.1 °F 25% 30.12 in 10.0 mi NW 11.5 mph 19.6 mph N/A   Scattered Clouds
12:53 PM 62.1 °F - 26.1 °F 25% 30.10 in 10.0 mi North 12.7 mph 21.9 mph N/A   Partly Cloudy
1:53 PM 60.1 °F - 28.9 °F 31% 30.13 in 10.0 mi NNW 18.4 mph 29.9 mph N/A   Clear
2:53 PM 59.0 °F - 30.9 °F 35% 30.16 in 10.0 mi NNW 19.6 mph 29.9 mph N/A   Mostly Cloudy
3:53 PM 55.0 °F - 33.1 °F 43% 30.19 in 10.0 mi North 19.6 mph 31.1 mph N/A   Clear
4:53 PM 53.1 °F - 34.0 °F 48% 30.22 in 10.0 mi NNW 15.0 mph 26.5 mph N/A   Overcast
5:53 PM 50.0 °F - 36.0 °F 59% 30.24 in 10.0 mi NNW 12.7 mph 25.3 mph N/A   Overcast
6:53 PM 48.9 °F - 35.1 °F 59% 30.27 in 10.0 mi NNW 10.4 mph - N/A   Mostly Cloudy
7:53 PM 48.0 °F - 34.0 °F 58% 30.27 in 10.0 mi NW 10.4 mph - N/A   Overcast
8:53 PM 45.0 °F 40.1 °F 35.1 °F 68% 30.28 in 10.0 mi WNW 9.2 mph - N/A   Overcast
9:53 PM 44.1 °F 40.1 °F 35.1 °F 71% 30.26 in 10.0 mi WNW 6.9 mph - N/A   Overcast
10:53 PM 46.0 °F 39.9 °F 35.1 °F 66% 30.22 in 10.0 mi NW 13.8 mph - N/A   Mostly Cloudy